EW1647 Weather Reports


Display with metric or nautical units.
time (UTC)temp
F
wind
direction
speed
MPH
gust
MPH
rain 1hr
in
rain 24hr
in
rain mn
in
humidity
%
barometer
mb
20260902154553 61 151 0.0 3.0 0.00 0.00 0.00 85 1007.0
20260902153053 60 150 0.0 5.0 0.00 0.00 0.00 87 1007.1
20260902151551 59 165 4.0 6.0 0.00 0.00 0.00 88 1007.1
20260902150049 58 131 0.0 3.0 0.00 0.00 0.00 90 1007.4
20260902144546 58 130 1.0 3.0 0.00 0.00 0.00 89 1007.7
20260902143044 57 130 0.0 1.0 0.00 0.00 0.00 88 1007.9
20260902141549 57 130 1.0 5.0 0.00 0.00 0.00 88 1008.0
20260902140043 57 157 2.0 5.0 0.00 0.00 0.00 88 1008.0
20260902134545 57 178 2.0 4.0 0.00 0.00 0.00 88 1008.0
20260902133042 57 181 2.0 10.0 0.00 0.00 0.00 89 1008.0
20260902131541 57 148 3.0 7.0 0.00 0.00 0.00 88 1007.9
20260902130039 57 149 3.0 6.0 0.00 0.00 0.00 88 1008.3
20260902124535 58 171 3.0 4.0 0.00 0.00 0.00 87 1008.3
20260902123033 58 175 2.0 4.0 0.00 0.00 0.00 87 1008.4
20260902121531 58 192 1.0 2.0 0.00 0.00 0.00 87 1008.5
20260902120029 59 190 1.0 3.0 0.00 0.00 0.00 87 1008.6
20260902114529 59 184 1.0 2.0 0.00 0.00 0.00 86 1008.7
20260902113031 59 184 0.0 2.0 0.00 0.00 0.00 86 1008.8
20260902111526 59 184 0.0 0.0 0.00 0.00 0.00 85 1008.8
20260902110026 60 184 1.0 4.0 0.00 0.00 0.00 85 1009.0
20260902104532 60 198 2.0 6.0 0.00 0.00 0.00 86 1009.1
20260902103023 59 189 2.0 8.0 0.00 0.00 0.00 87 1009.2
20260902101521 59 178 4.0 8.0 0.00 0.00 0.00 88 1009.3
20260902100020 59 203 3.0 6.0 0.00 0.00 0.00 89 1009.4
20260902094520 59 167 3.0 6.0 0.00 0.00 0.00 89 1009.4
20260902093017 59 167 2.0 5.0 0.00 0.00 0.00 89 1009.4
20260902091515 60 189 2.0 4.0 0.00 0.00 0.00 89 1009.5
20260902090014 60 188 2.0 4.0 0.00 0.00 0.00 89 1009.6
20260902084517 60 187 1.0 6.0 0.00 0.00 0.00 89 1009.8
20260902083014 61 199 1.0 4.0 0.00 0.00 0.00 89 1010.0
20260902081508 61 195 2.0 6.0 0.00 0.00 0.00 88 1010.1
20260902080009 61 173 4.0 6.0 0.00 0.00 0.00 87 1010.1
20260902074506 61 159 2.0 6.0 0.00 0.00 0.00 87 1010.2
20260902073005 61 161 3.0 7.0 0.00 0.00 0.00 86 1010.2
20260902071503 61 155 4.0 7.0 0.00 0.00 0.00 86 1010.3
20260902070002 61 163 3.0 7.0 0.00 0.00 0.00 85 1010.3
20260902064502 61 175 2.0 7.0 0.00 0.00 0.00 86 1010.3
20260902063116 61 204 1.0 5.0 0.00 0.00 0.00 87 1010.4
20260902061600 61 188 1.0 4.0 0.00 0.00 0.00 88 1010.4
20260902060117 61 188 2.0 4.0 0.00 0.00 0.00 88 1010.5
20260902054609 61 177 1.0 5.0 0.00 0.00 0.00 88 1010.6
20260902053059 61 215 1.0 3.0 0.00 0.00 0.00 88 1010.7
20260902051600 61 215 1.0 5.0 0.00 0.00 0.00 88 1010.8
20260902050057 61 235 2.0 8.0 0.00 0.00 0.00 88 1010.8
20260902044558 61 228 3.0 6.0 0.00 0.00 0.00 89 1010.8
20260902043109 61 227 1.0 5.0 0.00 0.00 0.00 88 1010.9
20260902041605 61 200 4.0 7.0 0.00 0.00 0.00 88 1010.8
20260902040057 61 169 4.0 7.0 0.00 0.00 0.00 89 1010.8
20260902034604 61 165 4.0 6.0 0.00 0.00 0.00 90 1010.8
20260902033054 61 209 2.0 7.0 0.00 0.00 0.00 91 1010.6
20260902031553 61 164 5.0 9.0 0.00 0.00 0.00 90 1010.7
20260902030053 61 155 3.0 6.0 0.00 0.00 0.00 90 1010.6
20260902024555 61 207 4.0 8.0 0.00 0.00 0.00 88 1010.5
20260902023053 62 190 3.0 9.0 0.00 0.00 0.00 85 1010.5
20260902021553 63 227 5.0 16.0 0.00 0.00 0.00 80 1010.7
20260902020051 65 277 4.0 10.0 0.00 0.00 0.00 78 1010.4
20260902014555 65 211 2.0 7.0 0.00 0.00 0.00 78 1010.4
20260902013055 64 238 4.0 10.0 0.00 0.00 0.00 79 1010.3
20260902011552 64 193 4.0 7.0 0.00 0.00 0.00 80 1010.2
20260902010053 64 251 4.0 14.0 0.00 0.00 0.00 80 1010.4
20260902004557 65 271 4.0 8.0 0.00 0.00 0.00 78 1010.4
20260902003124 65 261 5.0 10.0 0.00 0.00 0.00 78 1010.4
20260902001547 64 248 6.0 10.0 0.00 0.00 0.00 78 1010.4
20260902000048 64 179 5.0 11.0 0.00 0.00 0.00 78 1010.5
20260901234545 65 223 7.0 17.0 0.00 0.00 0.00 78 1010.5
20260901233045 65 228 7.0 13.0 0.00 0.00 0.00 77 1010.5
20260901231557 65 252 4.0 10.0 0.00 0.00 0.00 78 1010.4
20260901230045 65 222 5.0 13.0 0.00 0.00 0.00 78 1010.4
20260901224548 65 217 4.0 13.0 0.00 0.00 0.00 78 1010.4
20260901223044 65 252 8.0 14.0 0.00 0.00 0.00 78 1010.5
20260901221544 65 247 5.0 11.0 0.00 0.00 0.00 78 1010.6
20260901220048 65 291 5.0 10.0 0.00 0.00 0.00 79 1010.5
20260901214543 64 245 2.0 7.0 0.00 0.00 0.00 79 1010.5
20260901213041 65 240 4.0 11.0 0.00 0.00 0.00 78 1010.5
20260901211540 65 284 4.0 10.0 0.00 0.00 0.00 78 1010.6
20260901210052 65 287 3.0 11.0 0.00 0.00 0.00 77 1010.6
20260901204540 65 218 8.0 14.0 0.00 0.00 0.00 75 1010.6
20260901203042 66 271 3.0 12.0 0.00 0.00 0.00 76 1010.7
20260901201641 66 273 5.0 11.0 0.00 0.00 0.00 75 1010.6
20260901200038 66 259 1.0 6.0 0.00 0.00 0.00 76 1010.7
20260901194535 66 236 2.0 5.0 0.00 0.00 0.00 76 1010.7
20260901193040 66 237 0.0 5.0 0.00 0.00 0.00 75 1010.7
20260901191538 66 239 2.0 8.0 0.00 0.00 0.00 75 1010.7
20260901190032 65 214 2.0 6.0 0.00 0.00 0.00 77 1010.8
20260901184531 65 265 3.0 9.0 0.00 0.00 0.00 78 1011.0
20260901183028 65 232 3.0 10.0 0.00 0.00 0.00 78 1010.9
20260901181530 64 253 4.0 12.0 0.00 0.00 0.00 79 1010.9
20260901180031 64 308 2.0 5.0 0.00 0.00 0.00 82 1010.9
20260901174523 63 282 3.0 6.0 0.00 0.00 0.00 83 1010.7
20260901173021 63 296 2.0 5.0 0.00 0.00 0.00 85 1010.6
20260901171518 62 233 2.0 7.0 0.00 0.00 0.00 84 1010.6
20260901170017 61 198 3.0 10.0 0.00 0.00 0.00 85 1010.7
20260901164515 61 232 3.0 10.0 0.00 0.00 0.00 86 1010.7
20260901163026 60 223 4.0 12.0 0.00 0.00 0.00 86 1010.9
20260901161512 60 244 6.0 11.0 0.00 0.00 0.00 88 1010.9
20260901160011 60 226 4.0 9.0 0.00 0.00 0.00 88 1010.8